EHI
15 17 20 21 21 23 24 25 25 20 13 8 6 5 4 4 4 4 4 4 2 0 0 0 0 0 0 0 0 1 1 0 0 1 0 0 0 0 1 0 0 0 0
17 18 21 22 24 27 29 28 26 21 15 10 8 7 6 5 5 5 6 6 4 2 1 0 0 0 0 0 1 2 2 1 1 2 1 1 0 0 1 0 0 0 0
17 18 20 22 25 30 32 30 26 22 17 13 11 9 7 7 6 6 7 7 6 5 3 1 1 1 0 1 1 3 3 3 3 3 3 2 1 1 1 0 0 0 0
17 19 20 22 26 30 30 28 25 21 18 15 13 11 9 7 6 5 6 7 7 6 6 5 4 4 3 3 3 2 3 3 3 3 3 3 3 2 1 0 0 0 0
18 19 20 21 25 29 28 26 23 20 17 14 13 12 11 8 6 5 5 6 5 5 6 7 7 6 5 4 4 2 1 2 3 3 3 3 3 3 2 1 1 1 1
16 15 15 17 22 25 25 24 21 19 16 14 13 13 12 11 9 6 5 4 4 4 5 5 5 5 4 4 4 3 2 1 2 3 3 3 3 3 3 2 1 1 1
9 10 10 13 18 21 22 22 21 18 16 14 13 13 13 12 11 8 6 5 6 5 4 4 4 4 3 3 4 4 3 2 1 2 2 2 2 2 3 3 2 1 1
8 9 10 14 18 21 21 21 21 18 17 16 14 13 13 12 11 10 9 8 7 7 6 6 6 5 4 3 3 3 3 2 2 2 1 1 0 1 2 3 3 2 1
13 13 14 15 19 21 21 20 20 19 18 16 14 13 13 12 12 12 12 11 8 7 6 6 6 5 4 3 3 3 3 3 3 2 1 0 0 0 1 1 2 2 1
16 17 18 17 17 20 20 19 17 16 15 14 13 13 14 15 16 15 14 12 9 7 5 5 5 5 4 3 3 4 4 4 3 3 2 1 0 0 0 0 1 1 0
15 18 19 15 13 15 18 19 17 14 12 10 11 12 15 17 17 16 14 12 10 8 6 5 5 5 6 5 5 5 6 5 4 4 3 2 1 0 0 0 0 0 0
14 17 17 13 10 12 16 18 18 15 11 9 10 11 13 14 14 13 12 11 10 9 7 6 4 5 8 8 6 6 6 6 6 5 4 4 3 1 1 0 0 0 0
13 15 14 12 11 12 14 16 17 16 13 11 10 8 8 9 9 9 9 9 9 8 7 4 3 5 8 9 7 6 6 6 6 6 6 6 5 4 3 1 0 0 0
11 12 13 13 14 14 14 16 16 15 14 14 11 6 4 6 7 7 7 8 8 7 6 4 3 3 5 6 6 6 6 6 6 6 6 6 6 6 5 3 2 0 0
11 13 15 15 14 14 14 15 15 14 14 14 11 6 4 7 8 8 8 9 8 7 7 6 5 4 4 4 4 3 3 4 6 6 6 6 6 6 6 5 4 2 1
12 14 16 15 13 12 14 15 15 14 14 13 7 4 5 7 7 7 7 7 7 7 8 9 8 7 5 4 2 1 1 3 6 7 6 5 4 4 4 5 4 3 2
12 15 16 14 11 12 15 16 15 14 13 10 5 3 4 5 5 4 4 4 5 6 7 8 7 7 6 5 2 0 1 3 6 8 7 6 4 4 5 4 3 2 3
14 16 16 14 12 13 15 15 14 13 12 10 7 5 4 3 3 3 2 3 4 4 5 4 3 3 4 4 2 1 1 3 6 8 8 7 6 5 5 5 4 3 4
16 17 17 16 13 13 14 13 12 11 10 9 8 7 6 4 3 3 2 3 3 3 3 2 1 1 1 2 2 1 2 3 5 7 7 6 5 4 3 5 6 6 6
17 17 17 15 12 11 11 10 10 9 9 9 8 8 7 5 4 3 3 3 3 3 3 3 1 0 0 0 0 1 2 3 4 6 7 5 3 1 1 3 5 6 6
16 16 15 11 9 9 9 8 8 8 8 7 7 8 6 4 3 3 3 3 3 3 3 3 2 1 0 0 0 0 1 2 4 5 6 5 3 1 0 1 3 4 4
15 14 11 7 6 6 7 7 7 7 7 7 6 6 4 3 3 3 3 3 3 3 3 3 3 2 1 0 0 0 0 1 2 3 4 4 2 1 0 1 2 3 3
15 13 10 6 4 4 6 7 7 7 7 6 5 4 3 3 3 3 3 3 3 3 3 3 3 2 1 0 0 0 0 0 0 1 2 2 1 0 0 0 1 2 2
12 10 8 6 5 4 5 6 6 5 5 4 3 3 3 3 3 3 3 3 3 3 3 3 3 1 0 0 0 0 0 0 0 0 1 1 0 0 0 0 0 1 1
7 7 7 6 6 5 5 4 4 3 2 1 1 1 2 2 2 3 3 3 3 2 2 2 2 1 0 0 0 0 0 0 0 0 1 1 1 1 0 0 0 0 0
6 5 6 6 6 6 5 4 3 2 1 1 1 0 1 2 1 2 3 3 2 1 1 1 1 0 0 0 0 0 0 0 0 1 2 2 2 2 1 0 0 0 0
Wind_Speed
7 7 8 7 7 6 6 5 4 3 2 2 1 1 1 0 1 1 1 1 1 1 2 2 1 1 1 1 1 1 1 2 1 1 2 2 1 0 1 1 1 2 3
6 7 7 7 7 6 6 5 4 3 2 2 2 2 1 1 0 0 1 1 1 1 2 2 1 1 1 2 2 2 1 1 1 1 1 2 3 2 1 1 1 2 2
10 9 7 6 6 6 6 5 4 3 2 2 2 2 2 2 2 1 1 1 1 1 1 1 1 1 1 1 1 1 1 0 1 1 2 1 2 2 2 1 1 1 1
8 8 8 7 7 7 6 5 5 4 3 2 2 2 2 1 1 1 0 1 1 1 1 1 1 1 1 1 1 1 0 1 1 1 0 1 2 1 2 2 1 1 2
8 8 8 8 7 7 6 5 5 4 3 3 3 3 2 1 0 0 1 1 1 1 1 1 2 1 1 1 1 1 1 1 1 0 1 1 1 1 1 2 3 2 2
7 6 6 6 6 6 5 5 4 3 3 3 3 3 3 2 1 0 0 0 1 1 1 1 1 1 1 1 1 1 1 1 1 1 1 1 0 1 1 1 2 2 3
6 6 6 6 6 6 6 5 5 4 3 3 3 3 3 3 2 2 2 1 0 0 1 1 1 1 0 1 1 1 1 1 1 1 0 0 0 0 1 1 1 2 2
5 6 6 6 7 7 6 6 6 5 4 3 3 2 2 2 2 2 2 2 1 1 1 1 1 1 1 1 1 1 1 2 1 2 1 1 1 0 0 1 1 1 2
5 5 5 5 5 6 6 6 6 5 4 4 4 3 3 2 2 1 1 1 1 1 1 1 1 1 1 1 1 1 1 1 1 1 1 1 1 1 1 0 1 2 1
5 5 5 4 4 5 4 5 5 5 5 4 4 3 3 3 2 1 1 1 1 1 2 1 1 1 1 1 1 0 1 1 1 1 2 2 1 1 1 1 0 1 2
6 5 4 4 4 4 4 3 3 3 3 3 3 2 2 2 2 2 2 1 1 1 1 1 1 1 0 0 0 0 1 1 1 1 1 1 1 1 1 1 1 0 1
5 5 5 5 4 4 4 3 3 2 2 2 2 3 2 2 2 1 1 2 1 1 2 1 1 0 0 0 0 1 0 0 1 1 1 2 1 1 1 1 1 1 1
5 4 4 4 4 4 3 3 3 2 2 2 2 2 2 2 2 2 1 1 1 1 1 2 1 0 0 0 0 1 1 1 2 2 2 2 1 2 2 1 1 2 2
5 4 4 3 4 4 3 4 3 3 3 3 2 2 1 2 2 1 1 1 1 1 1 1 1 1 0 0 1 1 1 1 2 2 2 2 2 3 3 2 2 2 2
5 5 4 3 3 4 3 3 3 3 3 3 2 1 1 1 1 1 1 1 1 2 1 1 0 0 0 1 1 1 1 1 2 3 3 3 4 4 3 2 2 2 2
6 5 4 4 4 4 4 3 3 3 3 3 2 1 1 1 1 1 1 1 0 0 1 1 1 1 1 2 1 1 1 2 2 3 4 4 3 5 5 5 4 3 3
5 5 5 5 5 5 5 5 4 4 4 3 2 2 2 2 1 1 2 1 1 1 0 1 1 2 2 2 1 1 1 2 2 3 3 3 3 4 3 5 6 5 5
5 5 5 4 3 4 4 4 4 4 3 3 2 2 2 1 1 1 1 1 0 0 0 1 1 1 2 2 2 2 2 2 3 3 3 3 4 4 3 3 4 4 5
4 4 5 5 4 4 4 5 4 3 3 3 2 2 2 2 1 1 1 1 1 1 1 1 1 1 3 3 2 2 1 2 3 4 3 3 3 5 3 2 4 5 5
3 3 4 4 4 4 4 5 4 3 3 3 2 2 2 2 1 2 1 1 1 1 1 1 1 1 2 3 3 2 1 2 3 3 3 4 4 5 4 3 3 5 6
3 4 4 3 3 3 4 4 4 3 3 2 2 1 1 2 2 1 1 1 0 0 1 1 1 1 1 3 3 2 0 1 2 3 3 4 6 6 6 4 4 6 5
3 4 4 2 1 2 4 3 3 3 2 2 1 1 0 1 0 0 1 1 0 0 1 1 2 2 2 2 4 4 2 2 1 3 3 4 7 7 6 4 5 6 4
4 3 4 2 1 1 3 3 2 2 3 2 1 0 0 0 0 0 0 1 0 0 1 0 1 2 2 3 5 4 4 4 2 3 5 7 7 6 4 5 5 4 2
3 3 4 3 1 1 2 2 2 2 3 2 1 1 0 0 1 1 0 1 0 0 1 0 1 2 2 3 3 3 3 4 3 3 5 6 5 4 4 4 4 2 1
2 3 3 3 2 1 2 1 2 2 2 1 1 0 0 0 1 1 1 1 2 2 3 2 2 1 2 4 4 2 2 2 2 2 2 2 3 3 3 3 3 3 3
2 3 2 2 2 2 1 0 0 2 2 1 1 1 1 1 1 1 2 3 1 0 2 3 3 2 3 4 4 5 5 5 3 1 1 2 2 2 3 3 3 3 3
Wind_Direction
163 151 151 155 152 151 146 146 136 137 128 123 135 141 157 293 5 35 70 88 91 95 89 65 47 46 64 51 40 51 28 13 23 48 7 353 344 349 197 206 197 210 216
155 159 161 158 156 158 158 153 149 150 151 157 165 161 153 172 181 35 62 86 78 67 85 77 60 52 61 40 39 56 56 8 41 90 61 355 343 334 275 208 204 222 218
169 168 164 162 158 165 165 158 155 148 146 118 85 70 55 39 30 26 25 27 80 76 73 83 95 67 88 68 36 47 85 36 345 72 123 137 252 303 317 273 239 236 223
163 165 164 163 166 166 159 152 150 144 137 122 115 121 125 148 224 225 142 21 38 55 57 63 82 77 70 63 15 59 62 106 346 321 327 173 171 162 306 322 301 257 245
163 164 166 165 161 156 157 154 147 149 151 150 150 142 140 168 190 63 61 26 9 22 45 61 66 61 56 56 33 34 31 87 139 276 297 323 11 106 154 289 314 316 275
160 162 161 150 148 152 151 150 146 150 154 155 157 156 157 154 135 132 136 318 327 355 10 61 65 69 55 40 21 38 48 48 70 63 76 122 133 241 176 226 284 293 287
155 153 156 157 160 159 161 158 156 162 166 161 166 176 173 164 174 186 194 200 219 294 305 61 73 78 57 50 48 53 38 36 54 55 18 61 232 205 168 165 256 286 295
145 146 153 162 169 166 163 162 166 173 176 175 184 184 169 167 193 198 189 193 201 204 183 123 92 73 61 48 51 49 31 39 36 23 20 27 351 27 130 169 159 324 316
147 149 148 151 157 158 166 170 171 177 183 187 189 188 183 179 190 205 182 184 189 161 125 122 107 70 63 47 69 54 7 30 29 10 17 24 355 9 6 64 146 160 249
134 140 141 145 150 154 160 162 170 184 191 194 194 182 187 186 181 172 174 165 146 124 121 123 112 77 65 44 79 58 6 37 360 13 28 14 352 358 6 11 23 147 172
140 146 151 151 145 137 139 148 163 175 179 186 187 184 185 176 171 181 188 161 126 109 112 128 131 134 152 264 75 354 33 34 350 357 18 331 343 359 349 353 355 341 162
135 143 150 143 131 133 144 148 152 157 171 173 162 164 166 153 161 192 184 151 155 162 147 133 127 135 48 43 124 260 304 287 306 301 311 302 326 340 322 325 309 278 241
124 123 130 139 139 141 145 150 152 158 150 130 130 134 157 156 172 199 186 156 166 178 151 135 133 129 322 331 246 225 245 244 250 253 246 263 279 290 285 282 281 274 294
131 136 136 147 150 152 156 155 154 158 145 131 119 109 139 171 190 189 171 171 171 166 171 155 163 185 231 296 283 245 254 266 267 259 244 251 246 250 258 271 272 272 282
145 154 151 152 160 153 153 148 152 148 140 131 126 138 137 126 123 112 140 164 175 179 177 159 170 229 240 276 268 255 249 265 280 283 267 260 256 255 253 266 263 261 259
164 156 156 161 166 164 158 148 139 140 132 132 144 145 117 109 103 97 92 91 117 185 146 149 177 236 271 283 282 254 263 265 268 276 278 276 274 285 279 280 277 250 239
160 161 171 180 178 174 162 155 158 147 131 131 135 124 115 104 109 114 88 79 62 70 113 198 222 254 277 294 316 306 272 274 272 268 275 286 300 301 295 291 293 287 271
160 164 167 167 166 160 152 151 141 134 130 131 136 131 121 109 88 87 99 145 138 177 206 235 244 262 294 310 303 307 297 285 280 269 259 258 281 295 297 302 306 296 286
152 153 156 153 147 148 150 136 128 127 128 141 154 160 148 136 127 143 203 215 208 249 241 239 225 259 294 306 310 323 305 293 291 286 283 272 273 294 300 295 294 297 292
123 121 123 120 136 149 140 131 136 134 148 165 170 166 153 153 179 208 225 238 209 220 236 276 257 248 284 307 323 344 305 302 299 299 295 293 288 299 299 274 279 288 287
118 108 105 115 143 147 135 138 146 165 174 161 143 133 145 165 190 196 240 244 235 267 283 277 297 293 290 319 334 339 328 284 290 299 298 296 305 304 297 279 263 269 280
116 111 102 92 115 135 132 142 170 182 148 133 125 139 162 177 114 111 310 309 257 329 318 326 336 329 321 327 325 328 321 309 270 283 290 298 310 308 303 294 292 294 295
118 117 119 111 71 110 125 134 177 143 119 112 117 183 261 340 52 168 275 332 349 19 322 338 315 311 317 322 330 331 328 325 294 286 303 314 318 318 312 312 315 314 313
123 119 122 123 100 69 96 129 149 134 125 136 189 225 219 341 330 327 206 168 191 218 259 265 279 302 313 317 326 331 333 339 328 314 314 318 325 334 329 329 333 329 310
129 131 134 136 132 89 78 98 103 110 122 148 173 267 284 273 306 297 272 222 219 196 189 210 212 232 285 289 293 308 316 314 302 316 329 350 349 346 341 336 334 332 333
130 117 113 130 136 121 118 120 103 118 128 146 191 208 220 271 273 276 325 351 346 218 181 176 180 227 252 297 319 323 313 310 319 45 354 338 333 326 323 326 327 326 318